Location: Vancouver
(49.2500°N, 123.1330°W)
Time: 15:06:22
(UTC-07:00)

Iridium 35 - Visible Passes

Search period start: 28 May 2016 00:00
Search period end: 07 June 2016 00:00
Orbit: 776 x 779 km, 86.4° (Epoch: 28 May)

Date Brightness Start Highest point End Pass type
(mag) Time Alt. Az. Time Alt. Az. Time Alt. Az.
28 May 5.9 03:52:34 10° N 03:57:40 51° E 04:02:44 10° SSE visible
29 May 6.8 03:19:20 10° NNE 03:23:56 30° ENE 03:28:31 10° SE visible
30 May 7.5 02:46:26 10° NNE 02:50:05 19° ENE 02:53:42 10° ESE visible
30 May 5.1 04:26:10 10° N 04:31:22 69° W 04:36:32 10° S visible
31 May 7.8 02:14:34 10° NE 02:16:04 11° ENE 02:17:34 10° E visible
31 May 5.3 03:52:36 10° N 03:57:50 70° E 04:03:02 10° S visible
01 Jun 6.2 03:19:15 10° N 03:24:11 41° E 03:29:07 10° SSE visible
02 Jun 7.0 02:46:07 10° NNE 02:50:24 25° ENE 02:54:41 10° SE visible
02 Jun 5.4 04:26:23 10° NNW 04:31:25 50° W 04:36:26 10° SSW visible
03 Jun 7.5 02:13:27 10° NNE 02:16:29 15° ENE 02:19:31 10° ESE visible
03 Jun 5.0 03:52:42 10° N 03:57:58 85° W 04:03:11 10° S visible
04 Jun 5.6 03:19:14 10° N 03:24:23 57° E 03:29:31 10° SSE visible
05 Jun 6.5 02:45:57 10° NNE 02:50:41 34° ENE 02:55:24 10° SE visible
05 Jun 5.8 04:26:41 10° NNW 04:31:26 36° W 04:36:09 10° SSW visible
06 Jun 7.2 02:12:57 10° NNE 02:16:51 21° ENE 02:20:44 10° ESE visible
06 Jun 5.1 03:52:53 10° N 03:58:03 62° W 04:03:11 10° SSW visible
